This is the latest recevied weather packets stored in our database for station/object 9W2XPF-13. If no packets are shown the sender has not sent any weather packets the latest 10 day(s).
| Time | Temp. | Humidity | Pressure | Rain* | Wind** | Luminosity | Snow |
|---|---|---|---|---|---|---|---|
| 1777789802 | 31.67° C | 72% | 1007.6 hPa | 0 mm | - | - | - |
| 1777789682 | 31.67° C | 71% | 1007.5 hPa | 0 mm | - | - | - |
| 1777789562 | 31.67° C | 70% | 1007.5 hPa | 0 mm | - | - | - |
| 1777789442 | 31.67° C | 70% | 1007.6 hPa | 0 mm | - | - | - |
| 1777789322 | 31.67° C | 71% | 1007.6 hPa | 0 mm | - | - | - |
| 1777789202 | 31.67° C | 71% | 1007.6 hPa | 0 mm | - | - | - |
| 1777789082 | 31.67° C | 69% | 1007.6 hPa | 0 mm | - | - | - |
| 1777788962 | 31.67° C | 65% | 1007.6 hPa | 0 mm | - | - | - |
| 1777788842 | 32.22° C | 64% | 1007.3 hPa | 0 mm | - | - | - |
| 1777788722 | 31.67° C | 64% | 1007.6 hPa | 0 mm | - | - | - |
| 1777788602 | 31.67° C | 66% | 1007.6 hPa | 0 mm | - | - | - |
| 1777788482 | 31.67° C | 67% | 1007.3 hPa | 0 mm | - | - | - |
| 1777788362 | 31.67° C | 67% | 1007.5 hPa | 0 mm | - | - | - |
| 1777788242 | 31.67° C | 67% | 1007.5 hPa | 0 mm | - | - | - |
| 1777788122 | 31.67° C | 67% | 1007.6 hPa | 0 mm | - | - | - |
| 1777788002 | 31.67° C | 67% | 1007.7 hPa | 0 mm | - | - | - |
| 1777787882 | 31.67° C | 66% | 1007.7 hPa | 0 mm | - | - | - |
| 1777787762 | 31.67° C | 67% | 1007.7 hPa | 0 mm | - | - | - |
| 1777787642 | 31.67° C | 68% | 1007.8 hPa | 0 mm | - | - | - |
| 1777787522 | 31.67° C | 68% | 1007.8 hPa | 0 mm | - | - | - |
| 1777787402 | 31.67° C | 68% | 1008 hPa | 0 mm | - | - | - |
| 1777787282 | 31.67° C | 69% | 1007.9 hPa | 0 mm | - | - | - |
| 1777787162 | 31.67° C | 69% | 1008 hPa | 0 mm | - | - | - |
| 1777787042 | 32.22° C | 68% | 1008.2 hPa | 0 mm | - | - | - |
| 1777786922 | 31.67° C | 68% | 1008.1 hPa | 0 mm | - | - | - |
* Rain latest hour (hover to see other rain measurements)
** Current wind speed in m/s (hover to see current wind gust speed)